Weather History for K8D3 - March, 2013

Change the Weather History Date:

Friday, March 15, 2013

  Actual Average Record
Temperature  
Mean Temperature 21 °F 30 °F  
Max Temperature 28 °F 39 °F 76 °F (2015)
Min Temperature 13 °F 21 °F -7 °F (1997)
Degree Days  
Heating Degree Days 44 35  
Month to date heating degree days 682 578  
Since 1 July heating degree days 7067 6837  
Cooling Degree Days 0 0  
Month to date cooling degree days 0 0  
Year to date cooling degree days 0 0  
Moisture  
Dew Point 20 °F    
Average Humidity 91    
Maximum Humidity 100    
Minimum Humidity 81    
Precipitation  
Precipitation 0.03 in 0.04 in 0.30 in (1943)
Month to date precipitation 0.76 0.52  
Year to date precipitation 3.14 1.38  
Snow  
Snow 0.00 in - - ()
Month to date snowfall 3.3  
Since 1 July snowfall 40.0  
Snow Depth 15.00 in    
Sea Level Pressure  
Sea Level Pressure 30.03 in    
Wind  
Wind Speed 15 mph (NNE)    
Max Wind Speed 24 mph    
Max Gust Speed 29 mph    
T = Trace of Precipitation, MM = Missing Value Source: NWS Daily Summary

Daily Weather History Graph

Daily Weather History Graph

Search for Another Location

Airport or City:

Trip Planner

Search our weather history database for the weather conditions in past years. The results will help you decide how hot, cold, wet, or windy it might be!

Date:

Astronomy

Mar. 15, 2013 Rise Set
Actual Time 7:40 AM CDT 7:34 PM CDT
Civil Twilight 7:10 AM CDT 8:03 PM CDT
Nautical Twilight 6:35 AM CDT 8:38 PM CDT
Astronomical Twilight 6:00 AM CDT 9:13 PM CDT
Moon 9:17 AM CDT (3/15) No Moon Set
Length of Visible Light 12h 53m
Length of Day
11h 54m
Waxing Crescent, 15% of the Moon is Illuminated
Mar 15
Waxing Crescent
Mar 19
First Quarter
Mar 27
Full
Apr 2
Last Quarter
Apr 10
New

Hourly Weather History & Observations

Time (CDT) Temp. Windchill Dew Point Humidity Pressure Visibility Wind Dir Wind Speed Gust Speed Precip Events Conditions
12:56 AM 26.1 °F 12.7 °F 21.9 °F 84% 30.11 in - North 18.4 mph - N/A   Unknown
1:56 AM 24.1 °F 11.5 °F 21.0 °F 88% 30.11 in - North 15.0 mph - N/A   Unknown
2:56 AM 24.1 °F 12.5 °F 21.0 °F 88% 30.10 in - North 12.7 mph - N/A   Unknown
3:56 AM 23.0 °F 10.1 °F 21.0 °F 92% 30.06 in - NNE 15.0 mph - 0.01 in   Unknown
4:56 AM 23.0 °F 10.1 °F 21.0 °F 92% 30.04 in - NNE 15.0 mph - N/A   Unknown
5:56 AM 23.0 °F 10.1 °F 19.9 °F 88% 30.04 in - NNE 15.0 mph - 0.01 in   Unknown
6:56 AM 21.9 °F 8.7 °F 19.9 °F 92% 30.05 in - NNE 15.0 mph - N/A   Unknown
7:56 AM 21.9 °F 9.2 °F 19.9 °F 92% 30.04 in - NNE 13.8 mph - N/A   Unknown
8:56 AM 21.9 °F 7.3 °F 19.9 °F 92% 30.05 in - NNE 18.4 mph - N/A   Unknown
9:56 AM 21.9 °F 9.8 °F 19.9 °F 92% 30.05 in - North 12.7 mph - N/A   Unknown
10:56 AM 23.0 °F 11.7 °F 19.9 °F 88% 30.04 in - NNE 11.5 mph - N/A   Unknown
11:56 AM 24.1 °F 13.7 °F 21.0 °F 88% 30.02 in - NNE 10.4 mph - N/A   Unknown
12:56 PM 25.0 °F 14.8 °F 21.9 °F 88% 30.00 in - NE 10.4 mph - N/A   Unknown
1:56 PM 26.1 °F 17.6 °F 23.0 °F 88% 29.97 in - ENE 8.1 mph - N/A   Unknown
2:56 PM 27.0 °F 21.6 °F 24.1 °F 89% 29.95 in - NE 4.6 mph - 0.01 in   Unknown
3:56 PM 26.1 °F 15.0 °F 24.1 °F 92% 29.91 in - NNE 12.7 mph - N/A   Unknown
4:56 PM 23.0 °F 8.0 °F 21.0 °F 92% 29.98 in - North 20.7 mph - N/A   Unknown
5:56 PM 21.9 °F 8.7 °F 19.0 °F 89% 29.97 in - North 15.0 mph - N/A   Unknown
6:56 PM 21.9 °F 9.2 °F 19.0 °F 89% 29.98 in - North 13.8 mph - N/A   Unknown
7:56 PM 21.0 °F 9.3 °F 19.9 °F 96% 30.00 in - North 11.5 mph - N/A   Unknown
8:56 PM 19.9 °F 4.8 °F 19.0 °F 96% 30.05 in - North 18.4 mph - N/A   Unknown
9:56 PM 18.0 °F 0.9 °F 16.0 °F 92% 30.06 in - North 21.9 mph - N/A   Unknown
10:56 PM 15.1 °F -2.9 °F 12.9 °F 91% 30.10 in - North 21.9 mph - N/A   Unknown
11:56 PM 14.0 °F -4.3 °F 12.0 °F 92% 30.13 in - North 21.9 mph - N/A   Unknown